Wind_Speed
10 11 11 11 9 8 8 6 9 12 12 7 12 12 7 1 4 1 10 18 18 15 15 16 15 15 15 13 12 12 10 9 8 7 8 9 11 12 13 14 16 17 18 16 16 17 18 19 18
11 14 14 13 12 11 8 8 10 10 9 7 8 3 5 4 6 3 13 18 18 15 15 15 16 14 14 13 12 11 10 9 7 5 6 9 11 13 13 14 16 16 16 16 15 16 17 17 18
15 13 12 9 9 9 8 11 9 7 6 4 6 3 4 5 8 6 13 17 20 17 15 14 14 13 13 12 11 9 9 8 7 7 8 12 11 11 12 13 14 16 17 15 15 15 15 16 16
13 12 13 11 9 9 9 8 9 8 8 6 0 2 5 3 9 16 14 16 18 17 14 13 12 12 11 10 9 8 7 8 10 11 12 13 12 12 11 12 14 16 16 14 13 13 14 15 15
16 14 11 10 10 6 6 6 9 6 6 5 2 2 5 11 15 15 15 16 16 17 15 12 11 11 10 9 8 7 6 7 9 10 11 11 11 11 11 12 13 13 11 11 11 13 13 13 14
17 14 16 14 10 7 5 3 5 7 1 2 1 2 3 11 14 16 16 16 16 14 14 12 11 10 10 8 7 6 6 6 8 9 10 10 10 10 11 12 11 11 10 10 10 11 10 11 11
12 10 16 17 10 7 6 5 5 4 2 2 3 2 3 12 17 17 17 17 16 15 13 12 10 9 9 8 6 5 4 5 6 7 9 8 8 8 8 10 11 10 10 11 12 12 11 10 11
11 12 9 11 13 12 5 6 1 3 2 2 2 4 3 4 18 19 18 18 18 16 14 12 10 8 8 7 7 6 4 4 5 5 6 7 7 7 6 8 10 10 10 11 11 11 11 10 10
7 7 5 4 9 10 11 9 6 10 5 4 5 1 2 2 14 21 20 19 19 18 15 13 12 9 8 8 7 7 5 4 5 4 6 7 7 6 6 6 8 9 9 9 10 10 10 10 9
10 8 4 5 8 8 8 8 7 9 11 9 10 3 3 5 12 19 19 17 16 16 15 14 12 11 9 8 6 7 5 4 4 3 5 7 8 7 6 6 6 8 8 9 9 10 11 11 11
10 10 6 6 10 7 6 7 4 3 12 9 7 3 6 9 12 16 18 14 11 12 13 13 13 12 10 8 7 6 5 4 4 4 5 6 5 9 8 7 6 7 8 9 10 10 11 11 11
10 6 6 5 6 9 7 5 10 5 8 6 6 8 6 10 12 17 19 14 14 11 12 13 13 13 11 10 8 7 6 5 4 4 5 2 4 8 11 10 8 7 7 7 8 10 11 11 11
8 7 5 5 6 6 9 7 10 11 9 4 4 6 8 11 15 20 19 16 14 13 10 12 14 13 12 11 9 7 6 6 5 4 3 3 5 8 12 13 11 8 7 6 8 9 11 10 11
9 9 7 5 2 2 6 10 9 11 12 4 2 2 5 8 11 16 18 17 14 12 10 11 12 14 14 12 10 9 7 6 5 6 5 4 4 4 11 14 12 10 8 7 7 9 10 13 11
9 8 7 5 4 6 8 6 6 13 10 13 1 2 4 9 10 10 13 14 14 11 9 11 11 15 15 14 13 11 9 7 6 7 6 6 5 3 4 10 12 12 10 7 7 9 8 8 9
9 1 6 11 10 7 9 5 13 14 14 8 8 3 5 5 11 12 15 15 16 11 6 5 10 13 15 14 13 12 10 9 8 8 9 8 6 5 5 8 10 11 9 7 7 8 10 6 1
7 4 6 5 14 9 10 12 10 15 16 15 11 7 5 8 12 13 11 9 10 11 6 4 7 10 12 13 14 14 13 12 10 10 10 9 9 7 6 7 9 9 10 10 7 8 11 3 5
11 12 11 9 16 12 19 12 13 10 11 11 16 10 11 6 6 7 12 11 12 11 10 10 5 18 14 12 13 15 14 14 12 11 9 11 11 11 10 10 9 8 8 9 8 7 7 6 8
19 17 16 13 10 15 17 12 9 9 11 10 9 7 9 10 10 11 11 14 15 14 12 9 6 12 11 10 9 10 11 13 12 12 11 10 11 13 13 12 10 11 11 13 11 10 9 11 8
22 21 16 13 12 15 12 9 11 9 9 11 14 14 10 10 14 10 13 10 10 12 13 12 10 12 10 10 9 9 13 14 15 15 14 15 12 12 12 14 13 12 12 12 12 13 13 10 8
19 16 16 14 14 13 11 9 9 7 11 13 16 16 16 15 14 11 12 11 10 12 15 13 11 9 12 12 12 11 14 16 18 17 16 14 14 14 12 12 14 13 12 12 13 11 11 12 11
19 16 8 12 13 8 12 7 9 10 7 11 13 13 16 14 15 17 11 12 11 9 14 15 15 14 14 16 15 12 10 10 9 10 13 15 15 15 15 15 14 15 14 14 13 12 13 12 13
14 13 10 11 12 12 8 3 8 8 11 10 10 14 14 11 18 15 13 6 10 15 15 16 14 15 17 17 14 15 15 12 13 14 15 15 14 14 15 15 17 16 15 14 15 14 12 12 11
14 11 11 12 11 8 9 6 9 9 12 14 14 12 7 11 13 14 14 13 15 19 20 19 18 15 16 16 15 14 13 14 15 14 14 14 14 14 13 12 12 13 15 14 16 18 18 17 16
18 10 7 8 7 9 4 4 10 11 16 18 16 8 5 8 7 14 17 12 13 16 18 18 18 17 17 17 15 13 12 13 12 14 15 16 16 16 15 14 15 16 17 19 20 21 23 23 21
22 15 10 10 8 9 8 5 11 13 14 9 3 5 7 9 11 13 14 11 11 13 13 14 14 14 13 13 13 15 16 15 13 13 13 14 16 16 18 20 21 21 21 21 20 21 25 29 31
15 14 15 10 9 6 10 12 12 8 2 1 3 8 6 6 9 13 16 16 14 15 12 12 12 13 12 11 10 8 8 8 9 12 14 14 14 15 17 21 22 20 19 20 17 13 16 20 22
14 11 9 11 6 9 7 7 12 10 9 6 9 11 12 7 7 14 17 16 13 14 12 11 10 8 9 10 9 8 8 8 10 12 13 15 16 17 18 19 19 18 22 24 26 22 22 19 16
9 14 11 6 6 6 8 8 14 11 8 9 7 9 11 6 9 16 15 12 12 12 13 12 13 13 13 12 11 10 10 11 14 14 16 16 20 19 17 15 18 19 21 21 18 23 22 20 18
11 12 11 8 8 9 4 10 11 13 15 15 13 10 10 9 13 17 22 17 13 15 13 10 14 13 13 13 13 13 14 15 15 16 15 16 15 15 13 13 16 17 22 24 22 21 20 17 16
Wind_Direction
65 59 69 64 64 85 85 91 126 135 151 128 135 130 127 83 184 20 162 161 157 162 152 143 141 145 139 135 127 116 108 100 99 107 117 127 121 115 108 109 118 121 121 114 101 100 106 112 113
76 88 84 78 86 72 75 106 147 144 157 140 160 99 209 307 197 312 170 157 153 160 153 148 143 142 136 132 124 114 103 91 75 77 125 131 127 119 112 116 119 129 128 117 108 101 105 111 117
93 98 98 90 87 82 101 110 148 151 152 185 179 229 245 260 233 196 164 158 150 154 151 149 143 140 137 133 127 117 106 84 60 62 142 139 128 120 114 116 122 126 132 122 116 106 108 113 115
99 82 82 94 97 93 93 101 82 129 153 171 212 224 343 191 162 154 158 155 148 148 150 148 144 139 138 133 130 125 111 91 67 70 118 132 132 124 119 119 131 132 131 126 119 111 115 116 123
76 80 85 112 113 95 88 93 65 109 111 96 109 129 31 133 133 147 154 153 150 147 150 148 146 141 140 138 133 130 116 98 87 92 109 122 126 125 125 126 134 135 132 128 123 122 114 113 123
104 81 74 89 85 90 73 124 66 76 82 62 171 276 57 152 139 149 153 155 151 151 153 153 152 149 146 147 142 137 127 114 106 106 110 120 127 130 131 137 140 142 147 143 135 130 125 117 119
107 75 78 73 91 83 60 39 49 62 131 1 358 230 351 173 159 161 160 161 157 157 161 158 160 155 156 152 146 147 143 132 126 120 121 129 132 130 135 145 148 150 154 151 149 141 135 132 131
86 70 85 62 46 32 20 39 45 27 336 354 167 218 174 191 177 169 170 169 163 162 166 166 165 165 164 161 156 161 167 159 152 139 134 131 132 131 135 149 157 158 155 157 158 149 143 141 138
59 52 27 358 0 16 353 347 347 352 357 4 17 237 240 157 197 178 180 178 171 168 168 170 167 169 175 176 165 167 171 180 176 162 175 160 150 145 145 147 158 160 161 164 159 159 158 157 154
60 50 30 12 9 12 0 350 308 338 355 14 15 321 192 156 187 187 184 183 179 174 170 172 171 174 181 188 175 166 157 153 163 180 176 174 175 170 161 157 162 165 155 161 164 160 162 167 169
54 42 6 355 344 347 9 350 318 353 11 29 36 26 154 156 167 177 183 181 177 183 179 176 177 180 183 188 187 182 174 146 146 152 156 177 184 189 185 178 172 165 161 160 158 164 170 173 177
56 25 342 21 339 323 332 337 345 304 2 14 54 59 124 143 164 161 166 173 182 185 189 186 187 183 185 187 187 194 187 172 153 159 202 159 203 200 199 192 194 189 177 165 164 170 179 184 185
12 354 323 322 295 299 326 326 326 350 356 353 54 67 101 140 154 156 164 174 170 175 184 198 194 190 191 189 191 197 195 198 171 169 186 217 213 217 203 201 201 202 200 195 188 189 194 202 200
350 348 344 327 309 312 303 300 325 359 347 351 128 89 108 127 163 170 172 169 166 172 178 175 183 191 194 196 195 199 199 210 204 187 183 184 191 205 202 197 197 200 212 215 220 212 210 214 212
346 42 356 357 332 302 330 306 329 321 330 336 277 171 188 153 140 145 159 155 152 147 166 195 201 198 193 199 200 202 209 204 217 215 193 183 171 137 170 191 195 199 210 230 241 230 229 218 250
323 316 40 33 9 343 311 293 331 329 312 299 309 233 215 191 161 162 165 167 160 148 149 175 195 192 195 201 207 208 211 211 216 215 204 201 191 174 159 171 187 195 204 214 224 230 244 204 360
302 327 354 34 10 356 337 306 322 308 302 296 297 255 208 210 205 196 183 185 170 170 197 206 206 194 197 203 206 207 211 212 216 211 207 211 205 196 188 188 194 199 207 213 229 243 270 283 261
288 303 317 326 345 340 342 333 340 324 298 298 290 267 231 210 188 204 203 202 201 188 202 231 240 192 187 190 204 214 215 208 206 205 204 210 217 211 201 200 208 205 212 221 230 241 271 263 273
274 287 291 322 348 324 338 332 322 306 291 285 284 296 271 220 198 212 200 205 215 205 201 213 193 193 202 201 209 230 229 224 210 207 208 207 215 220 213 205 206 214 220 227 229 237 261 273 278
266 276 286 305 327 323 323 321 348 278 279 288 293 275 266 245 229 226 215 214 225 207 197 201 188 211 216 216 217 227 229 227 217 216 220 223 222 226 227 213 211 217 227 236 238 242 253 269 278
253 265 281 295 314 309 333 312 318 311 300 308 308 292 276 251 225 226 227 220 214 209 206 198 194 209 218 210 215 220 231 224 221 221 222 230 236 234 228 227 229 233 241 246 248 249 252 253 265
252 261 269 279 308 309 329 307 314 318 313 328 320 299 289 272 238 219 228 218 219 198 194 200 201 213 226 228 230 234 238 230 213 211 216 219 224 229 229 227 235 245 251 245 244 254 247 249 261
251 246 254 272 297 305 305 255 294 308 306 322 306 313 302 272 227 227 226 223 212 195 197 199 192 202 219 226 234 236 234 226 219 211 210 217 221 222 226 229 235 240 245 240 241 252 256 248 252
227 236 263 285 288 266 272 235 280 284 285 304 312 314 295 307 217 218 210 222 215 207 199 203 204 204 218 221 220 221 221 222 222 223 225 226 230 231 230 233 241 247 248 253 255 255 260 264 262
230 234 243 241 235 258 264 249 274 282 282 298 312 313 294 277 215 217 212 225 241 222 213 206 207 206 211 215 219 217 216 224 227 224 226 226 230 234 237 243 245 249 253 257 259 264 267 266 262
235 223 225 241 240 254 296 245 284 276 282 300 353 347 312 273 227 215 200 175 193 200 196 195 198 200 201 207 209 214 217 226 235 236 234 234 238 240 237 238 242 248 252 257 266 275 271 265 252
216 206 227 237 259 263 262 269 298 295 294 245 62 17 320 238 237 183 174 165 171 176 163 164 181 188 187 188 203 210 215 235 253 249 248 245 245 249 251 251 253 254 260 265 281 292 295 312 290
207 219 216 220 225 249 239 244 277 306 259 231 315 323 330 233 210 176 173 155 162 178 167 182 197 206 206 209 218 223 235 249 258 261 264 260 251 251 252 259 261 253 248 247 247 254 273 292 280
220 234 218 216 208 255 259 258 265 292 313 321 320 314 316 235 211 190 194 175 169 195 211 219 215 218 220 228 228 232 242 251 254 258 261 269 260 251 257 251 247 247 246 257 257 254 265 274 272
253 221 218 244 221 212 232 257 264 280 304 300 308 284 296 299 213 198 204 206 211 194 204 222 220 223 223 227 234 238 245 247 255 258 257 255 260 258 248 242 246 251 249 270 276 270 274 269 267
Height
3172 3171 3171 3171 3176 3174 3173 3176 3176 3178 3179 3179 3180 3181 3183 3182 3184 3189 3186 3187 3190 3192 3194 3195 3196 3199 3200 3202 3204 3205 3206 3207 3207 3207 3208 3209 3210 3210 3211 3212 3213 3214 3215 3216 3217 3217 3218 3219 3220
3174 3174 3175 3175 3177 3176 3177 3177 3178 3179 3180 3180 3181 3182 3183 3184 3183 3185 3187 3188 3191 3194 3196 3198 3199 3200 3202 3204 3205 3206 3207 3208 3208 3209 3209 3210 3211 3212 3212 3213 3215 3216 3217 3218 3219 3221 3221 3222 3222
3176 3176 3176 3176 3177 3178 3178 3178 3179 3180 3181 3182 3183 3183 3183 3183 3183 3185 3188 3190 3191 3195 3198 3199 3200 3202 3204 3205 3206 3207 3208 3209 3209 3209 3210 3211 3212 3213 3214 3215 3217 3218 3220 3221 3222 3222 3223 3224 3225
3178 3179 3180 3180 3179 3179 3179 3181 3181 3181 3182 3183 3184 3184 3183 3181 3182 3185 3188 3191 3193 3196 3199 3201 3202 3203 3205 3206 3208 3209 3210 3211 3210 3210 3210 3212 3213 3214 3216 3217 3219 3221 3222 3224 3224 3225 3226 3227 3228
3181 3180 3179 3180 3180 3180 3180 3182 3183 3183 3183 3184 3184 3185 3184 3183 3184 3187 3190 3192 3195 3197 3200 3202 3204 3205 3207 3208 3210 3211 3212 3212 3212 3213 3214 3214 3215 3216 3218 3219 3221 3222 3224 3225 3226 3227 3228 3228 3230
3183 3183 3182 3182 3182 3182 3182 3183 3184 3184 3184 3186 3186 3186 3186 3186 3186 3189 3191 3194 3196 3199 3201 3203 3205 3207 3208 3210 3211 3212 3213 3214 3215 3215 3216 3217 3218 3219 3220 3221 3222 3224 3225 3226 3228 3229 3230 3231 3232
3184 3185 3184 3183 3183 3184 3185 3184 3185 3185 3186 3186 3187 3187 3187 3186 3187 3190 3192 3194 3197 3199 3202 3203 3206 3208 3210 3211 3213 3213 3214 3216 3216 3217 3218 3219 3219 3221 3222 3222 3224 3225 3227 3228 3229 3231 3232 3233 3234
3187 3187 3187 3186 3185 3186 3186 3186 3186 3186 3187 3187 3186 3187 3187 3187 3188 3190 3192 3195 3197 3200 3203 3205 3207 3209 3211 3212 3214 3215 3216 3217 3218 3218 3219 3220 3221 3222 3223 3224 3224 3226 3228 3229 3230 3232 3233 3234 3235
3189 3190 3188 3189 3187 3187 3187 3187 3186 3186 3186 3186 3185 3185 3186 3186 3188 3190 3193 3195 3197 3200 3203 3205 3207 3210 3212 3214 3215 3216 3217 3218 3219 3219 3219 3220 3222 3223 3224 3225 3226 3227 3229 3230 3231 3233 3234 3235 3235
3190 3190 3189 3190 3189 3188 3188 3188 3188 3187 3186 3186 3185 3185 3185 3186 3187 3190 3193 3196 3199 3200 3203 3206 3208 3210 3212 3214 3216 3217 3218 3219 3220 3220 3220 3221 3223 3223 3224 3226 3227 3228 3229 3231 3231 3233 3234 3235 3235
3191 3191 3190 3190 3190 3188 3187 3188 3188 3188 3187 3187 3187 3185 3184 3186 3188 3190 3194 3197 3200 3202 3203 3206 3208 3210 3212 3214 3216 3217 3219 3220 3220 3221 3221 3221 3223 3223 3224 3225 3228 3229 3230 3231 3232 3233 3233 3234 3235
3193 3192 3191 3191 3190 3189 3188 3187 3189 3188 3189 3188 3187 3186 3186 3186 3189 3190 3194 3197 3199 3201 3204 3205 3207 3209 3212 3214 3216 3217 3219 3220 3221 3221 3221 3222 3223 3223 3223 3225 3227 3229 3230 3232 3233 3233 3233 3233 3234
3193 3192 3192 3191 3190 3189 3188 3188 3188 3188 3189 3189 3188 3187 3187 3188 3190 3192 3195 3197 3198 3200 3202 3204 3206 3208 3211 3213 3215 3217 3219 3220 3221 3221 3222 3222 3223 3223 3223 3224 3226 3228 3229 3231 3232 3233 3233 3232 3233
3194 3193 3192 3191 3190 3189 3189 3188 3188 3189 3189 3189 3189 3189 3188 3189 3191 3192 3193 3196 3198 3199 3201 3203 3204 3207 3210 3212 3215 3217 3218 3219 3221 3221 3222 3222 3222 3222 3222 3224 3226 3227 3228 3230 3231 3231 3231 3230 3230
3194 3193 3192 3191 3190 3190 3189 3188 3188 3188 3188 3188 3189 3189 3190 3190 3191 3193 3196 3196 3198 3199 3200 3201 3203 3205 3208 3211 3213 3215 3217 3218 3220 3220 3221 3222 3222 3221 3222 3223 3225 3226 3228 3229 3229 3229 3230 3228 3228
3194 3194 3192 3191 3190 3190 3191 3188 3189 3187 3186 3188 3189 3189 3190 3190 3192 3193 3195 3196 3196 3198 3199 3199 3201 3203 3206 3208 3211 3214 3215 3217 3218 3219 3220 3222 3223 3223 3223 3223 3225 3226 3227 3228 3229 3229 3228 3227 3228
3194 3193 3193 3192 3191 3190 3191 3187 3188 3187 3185 3185 3187 3188 3188 3189 3190 3191 3193 3194 3195 3196 3198 3200 3201 3203 3204 3206 3209 3211 3214 3215 3216 3217 3219 3221 3222 3223 3224 3224 3225 3226 3227 3227 3228 3228 3227 3227 3228
3193 3193 3192 3192 3192 3189 3187 3184 3185 3184 3183 3182 3183 3185 3187 3188 3189 3191 3192 3193 3193 3194 3196 3197 3199 3199 3202 3204 3206 3209 3211 3213 3214 3216 3217 3219 3221 3222 3223 3224 3225 3226 3227 3227 3227 3227 3227 3227 3226
3191 3190 3190 3191 3190 3187 3186 3183 3182 3182 3181 3181 3181 3182 3183 3186 3188 3188 3189 3191 3191 3192 3193 3195 3197 3199 3201 3203 3205 3208 3210 3212 3213 3215 3216 3217 3219 3220 3221 3223 3224 3226 3226 3226 3226 3227 3226 3224 3223
3189 3188 3189 3189 3190 3187 3185 3181 3181 3179 3180 3179 3179 3179 3181 3182 3184 3185 3186 3187 3189 3190 3191 3193 3195 3198 3199 3202 3203 3205 3207 3209 3210 3212 3213 3215 3216 3218 3219 3221 3222 3224 3225 3225 3225 3225 3225 3224 3223
3186 3186 3187 3188 3187 3186 3184 3181 3179 3179 3177 3177 3176 3176 3176 3178 3180 3182 3183 3185 3186 3187 3189 3190 3193 3195 3198 3199 3201 3203 3204 3206 3207 3209 3211 3213 3214 3216 3217 3219 3220 3222 3222 3224 3224 3223 3223 3223 3222
3183 3184 3185 3185 3185 3184 3184 3181 3179 3176 3176 3175 3173 3172 3171 3172 3175 3178 3180 3181 3183 3185 3187 3188 3190 3193 3195 3197 3198 3200 3203 3204 3206 3207 3208 3210 3211 3213 3214 3216 3217 3218 3220 3221 3221 3221 3220 3220 3220
3181 3181 3182 3182 3183 3182 3181 3182 3177 3176 3174 3174 3172 3169 3167 3167 3170 3174 3177 3179 3181 3182 3185 3187 3188 3190 3192 3194 3195 3198 3199 3201 3203 3204 3205 3207 3208 3210 3211 3212 3214 3215 3216 3217 3218 3218 3216 3216 3217
3178 3179 3179 3179 3180 3179 3178 3180 3175 3175 3173 3171 3170 3167 3166 3165 3166 3170 3173 3176 3177 3179 3181 3183 3185 3187 3189 3191 3193 3195 3196 3198 3199 3201 3203 3205 3207 3208 3209 3209 3211 3212 3214 3214 3215 3215 3215 3215 3214
3174 3177 3176 3177 3176 3175 3176 3177 3173 3172 3171 3169 3167 3166 3165 3164 3165 3167 3169 3171 3173 3175 3177 3180 3182 3184 3186 3188 3190 3192 3194 3195 3197 3198 3200 3202 3203 3205 3206 3206 3208 3209 3211 3211 3212 3212 3212 3212 3211
3170 3174 3173 3173 3172 3172 3173 3172 3171 3168 3168 3167 3165 3164 3164 3163 3163 3165 3168 3169 3172 3174 3176 3177 3179 3181 3183 3185 3187 3189 3190 3192 3193 3195 3196 3197 3198 3200 3201 3201 3202 3203 3204 3206 3207 3207 3207 3204 3198
3167 3168 3170 3171 3170 3172 3170 3168 3167 3164 3165 3165 3164 3164 3163 3162 3162 3164 3166 3168 3171 3173 3174 3176 3178 3180 3181 3183 3185 3186 3188 3189 3191 3192 3193 3194 3195 3195 3196 3197 3198 3199 3201 3201 3203 3202 3202 3195 3187
3163 3165 3167 3166 3167 3167 3164 3164 3163 3162 3161 3161 3160 3161 3160 3160 3162 3163 3166 3168 3170 3172 3173 3174 3176 3178 3179 3181 3182 3184 3185 3186 3188 3189 3189 3190 3191 3191 3191 3191 3193 3193 3192 3192 3194 3195 3195 3197 3191
3160 3160 3161 3162 3163 3159 3159 3159 3159 3159 3158 3158 3158 3158 3157 3157 3160 3162 3164 3167 3168 3171 3171 3173 3174 3175 3177 3179 3180 3181 3182 3183 3184 3185 3185 3186 3186 3186 3187 3188 3188 3188 3186 3186 3188 3189 3190 3190 3190
3155 3156 3157 3158 3160 3158 3157 3157 3155 3155 3156 3156 3156 3154 3154 3154 3157 3159 3163 3164 3166 3168 3169 3171 3173 3174 3176 3177 3178 3179 3179 3180 3180 3181 3182 3181 3181 3182 3183 3184 3184 3185 3186 3186 3187 3187 3186 3186 3187